[[{"header":{"parameterUnit":"m.s-1","parameterCategory":1,"la1":30.2991,"la2":30.254,"lo1":-89.0895,"lo2":-89.0444,"dx":0.0017,"dy":0.0017,"nx":28,"ny":28,"refTime":"2022-11-13T15:00:00:Z","depth":0,"parameterNumber":2,"parameterNumberName":"U-component_of_WINDS"},"data":[0,0,0,0,0,0,0,0,0,0,0,0,0,0,0,0,0,0,0,0,0,0,0,0,0,0,0,0,0,0,0,0,0,0,0,0,0,0,0,0,0,0,0,0,0,0,0,0,0,0,0,0,0,0,0,0,0,0,-1.0346,-1.0346,0,-1.0405,-1.0405,-1.0406,-1.0357,-1.0355,-1.0353,-1.0351,-1.0413,-1.0417,-1.042,0,0,0,0,0,0,0,0,0,0,0,0,0,-1.0191,-1.0194,-1.0346,-1.0346,-1.0347,-1.0405,-1.0405,-1.0406,-1.0357,-1.0355,-1.0352,-1.035,-1.0412,-1.0416,-1.0421,0,0,0,0,0,0,0,0,0,0,0,0,0,-1.0255,-1.0196,-1.0346,-1.033,-1.0329,-1.0404,-1.0405,-1.0406,-1.0358,-1.0355,-1.0351,-1.0349,-1.0411,-1.0416,-1.0421,-1.0516,0,0,-1.0438,-1.044,0,0,0,0,0,0,0,0,-1.0252,-1.0261,-1.0331,-1.0331,-1.033,-1.037,-1.0374,-1.0443,-1.0358,-1.0347,-1.0351,-1.0347,-1.0402,-1.0407,-1.0425,-1.0519,-1.0522,-1.0438,-1.0441,-1.0444,-1.0445,0,0,0,0,0,0,0,-1.0247,-1.0258,-1.0369,-1.0332,-1.0332,-1.032,-1.0325,-1.0387,-1.0391,-1.0348,-1.0344,-1.0352,-1.0401,-1.042,-1.0427,-1.0523,-1.0438,-1.0443,-1.0446,-1.0448,-1.0698,-1.0701,0,0,0,0,0,0,-1.0244,-1.0255,-1.0367,-1.0371,-1.0282,-1.0325,-1.0331,-1.036,-1.039,-1.0392,-1.0354,-1.0349,-1.0413,-1.042,-1.0429,-1.0543,-1.0444,-1.0449,-1.0452,-1.0694,-1.0698,-1.0702,0,0,0,0,0,0,-1.0241,-1.0255,-1.0365,-1.0312,-1.0325,-1.0331,-1.0364,-1.0363,-1.0383,-1.0395,-1.0396,-1.0374,-1.0411,-1.0421,-1.0495,-1.0544,-1.0451,-1.0456,-1.069,-1.0695,-1.07,-1.0771,0,0,0,0,0,0,-1.0237,-1.0254,-1.029,-1.0313,-1.0328,-1.043,-1.0367,-1.0367,-1.0392,-1.0386,-1.0413,-1.0415,-1.0409,-1.0487,-1.05,-1.055,-1.046,-1.0686,-1.0693,-1.0698,-1.0765,-1.0778,-1.079,0,0,0,0,0,-1.0232,-1.0309,-1.0293,-1.0306,-1.0373,-1.0433,-1.0442,-1.0433,-1.0396,-1.0433,-1.044,-1.0414,-1.0536,-1.0495,-1.0509,-1.0561,-1.0683,-1.0691,-1.0698,-1.0759,-1.0776,-1.0789,0,0,0,0,0,0,-1.0293,-1.0311,-1.0294,-1.038,-1.0405,-1.0425,-1.0471,-1.045,-1.0487,-1.048,-1.0467,-1.0474,-1.0552,-1.0563,-1.0517,-1.0655,-1.0603,-1.0614,-1.0645,-1.0661,-1.0673,-1.067,-1.0465,0,0,0,0,0,-1.0316,-1.0363,-1.0376,-1.0451,-1.0465,-1.0466,-1.0491,-1.0482,-1.0508,-1.0518,-1.0531,-1.0558,-1.0602,-1.0631,-1.0673,-1.0765,-1.077,-1.0807,-1.082,-1.083,-1.0841,-1.0891,-1.0907,-1.0727,-1.0727,-1.0727,0,0,-1.0365,-1.0381,-1.0412,-1.0464,-1.0482,-1.0531,-1.0475,-1.0529,-1.0566,-1.0527,-1.0598,-1.0608,-1.0636,-1.072,-1.0757,-1.0732,-1.0891,-1.084,-1.0848,-1.0853,-1.09,-1.0917,-1.0932,-1.0732,-1.0731,-1.073,0,0,-1.0481,-1.0497,-1.0561,-1.058,-1.0608,-1.0608,-1.0623,-1.0645,-1.065,-1.0721,-1.0692,-1.0735,-1.0811,-1.0833,-1.0854,-1.0974,-1.0952,-1.0988,-1.1055,-1.1103,-1.1118,-1.113,-1.1175,-1.119,-1.0998,-1.0998,-1.0998,0,-1.0539,-1.0611,-1.0597,-1.0653,-1.0677,-1.0642,-1.0708,-1.0727,-1.0767,-1.0785,-1.0755,-1.0849,-1.0866,-1.0954,-1.0984,-1.1001,-1.1019,-1.0986,-1.1117,-1.1129,-1.1141,-1.1183,-1.1199,-1.1002,-1.1002,-1.1001,-1.1001,0,-1.0682,-1.0732,-1.078,-1.082,-1.0848,-1.0909,-1.0904,-1.0935,-1.0922,-1.0925,-1.0997,-1.1015,-1.1059,-1.1079,-1.1067,-1.1165,-1.1149,-1.1118,-1.1067,-1.1162,-1.1202,-1.1218,-1.1008,-1.1007,-1.1005,-1.1004,0,0,-1.084,-1.0869,-1.0887,-1.0904,-1.0931,-1.097,-1.1028,-1.1071,-1.1098,-1.1126,-1.1176,-1.1239,-1.1211,-1.1235,-1.1224,-1.1267,-1.1362,-1.1231,-1.1231,-1.1256,-1.1472,-1.1497,-1.1516,-1.1346,-1.1349,-1.1351,-1.1471,0,-1.0958,-1.106,-1.1047,-1.1145,-1.1191,-1.1157,-1.1208,-1.123,-1.1234,-1.1274,-1.1277,-1.1324,-1.1281,-1.1296,-1.1336,-1.1342,-1.1406,-1.1333,-1.1393,-1.1395,-1.139,-1.1536,-1.1563,-1.1675,-1.1486,-1.1488,-1.149,0,-1.111,-1.1142,-1.1244,-1.1263,-1.1282,-1.1328,-1.1366,-1.1404,-1.1428,-1.1427,-1.1453,-1.1435,-1.1493,-1.1438,-1.1519,-1.147,-1.1493,-1.15,-1.1504,-1.1511,-1.1451,-1.155,-1.171,-1.1728,-1.1514,-1.1512,-1.151,0,-1.1217,-1.1286,-1.1356,-1.1372,-1.1395,-1.1428,-1.144,-1.1461,-1.1487,-1.1519,-1.1536,-1.1574,-1.1596,-1.1627,-1.1619,-1.158,-1.1702,-1.1647,-1.1704,-1.1705,-1.1734,-1.1733,-1.1903,-1.1745,-1.1745,-1.1745,-1.1745,0,-1.1352,-1.1416,-1.1405,-1.1448,-1.1519,-1.1503,-1.1574,-1.1581,-1.1599,-1.1643,-1.1615,-1.1657,-1.1644,-1.1685,-1.168,-1.1748,-1.1757,-1.1759,-1.1758,-1.1763,-1.1764,-1.1781,-1.1773,-1.1749,-1.1748,-1.1747,-1.1747,0,-1.1485,-1.148,-1.1555,-1.157,-1.1575,-1.1627,-1.164,-1.1681,-1.168,-1.1737,-1.1749,-1.1749,-1.1796,-1.1791,-1.1844,-1.184,-1.1925,-1.1913,-1.1917,-1.1915,-1.1974,-1.1969,-1.2163,-1.2188,-1.2012,-1.2014,-1.2015,0,-1.1573,-1.1621,-1.1641,-1.1668,-1.1682,-1.1726,-1.1752,-1.1738,-1.1766,-1.1796,-1.1833,-1.1877,-1.1912,-1.1988,-1.1994,-1.2033,-1.2023,-1.2088,-1.2029,-1.2033,-1.2026,-1.2025,-1.203,-1.2101,-1.2103,-1.2104,-1.2106,0,-1.1729,-1.1723,-1.1762,-1.1799,-1.183,-1.1859,-1.1885,-1.1908,-1.1897,-1.1929,-1.1977,-1.2004,-1.2056,-1.2101,-1.2138,-1.215,-1.2127,-1.2123,-1.2139,-1.2147,-1.2149,-1.215,-1.1951,-1.212,-1.2119,-1.2118,-1.2117,-1.2116,-1.1843,-1.1885,-1.1905,-1.1948,-1.1966,-1.199,-1.2029,-1.2033,-1.2072,-1.2114,-1.2102,-1.2156,-1.2177,-1.2225,-1.224,-1.2282,-1.2258,-1.2281,-1.2287,-1.2293,-1.2301,-1.2139,-1.2288,-1.2288,-1.2287,-1.2287,-1.2287,0,-1.2,-1.201,-1.205,-1.2086,-1.212,-1.2093,-1.2119,-1.215,-1.2197,-1.2219,-1.2253,-1.2307,-1.2349,-1.2357,-1.2397,-1.2429,-1.2419,-1.244,-1.2439,-1.2442,-1.2319,-1.2302,-1.2447,-1.2447,-1.2447,-1.2447,-1.2447,-1.2447,-1.2085,-1.2154,-1.2151,-1.2227,-1.2237,-1.2289,-1.2307,-1.2329,-1.2346,-1.2408,-1.2442,-1.2446,-1.2462,-1.2503,-1.254,-1.2541,-1.2558,-1.2584,-1.2581,-1.2467,-1.2451,-1.2436,-1.242,-1.2587,-1.2587,-1.2701,-1.2702,-1.2703]},{"header":{"parameterUnit":"m.s-1","parameterCategory":1,"la1":30.2991,"la2":30.254,"lo1":-89.0895,"lo2":-89.0444,"dx":0.0017,"dy":0.0017,"nx":28,"ny":28,"refTime":"2022-11-13T15:00:00:Z","depth":0,"parameterNumber":3,"parameterNumberName":"V-component_of_WINDS"},"data":[0,0,0,0,0,0,0,0,0,0,0,0,0,0,0,0,0,0,0,0,0,0,0,0,0,0,0,0,0,0,0,0,0,0,0,0,0,0,0,0,0,0,0,0,0,0,0,0,0,0,0,0,0,0,0,0,0,0,-8.4753,-8.4755,0,-8.495,-8.4952,-8.4954,-8.4854,-8.4848,-8.4843,-8.4838,-8.5033,-8.5042,-8.5052,0,0,0,0,0,0,0,0,0,0,0,0,0,-8.4281,-8.4291,-8.4753,-8.4755,-8.4758,-8.4949,-8.4952,-8.4955,-8.4854,-8.4848,-8.4842,-8.4836,-8.5029,-8.5041,-8.5053,0,0,0,0,0,0,0,0,0,0,0,0,0,-8.4483,-8.4294,-8.4752,-8.4731,-8.4731,-8.4949,-8.4952,-8.4956,-8.4856,-8.4848,-8.484,-8.4833,-8.5025,-8.504,-8.5055,-8.5303,0,0,-8.5101,-8.5107,0,0,0,0,0,0,0,0,-8.4472,-8.45,-8.4732,-8.4733,-8.4733,-8.4869,-8.4857,-8.5072,-8.4858,-8.4808,-8.4838,-8.4829,-8.4984,-8.5002,-8.5056,-8.5312,-8.532,-8.5102,-8.5111,-8.5117,-8.5122,0,0,0,0,0,0,0,-8.4458,-8.4491,-8.483,-8.4735,-8.4736,-8.4709,-8.4729,-8.4897,-8.4937,-8.4812,-8.4805,-8.483,-8.4983,-8.5042,-8.5059,-8.5323,-8.5101,-8.5115,-8.5124,-8.513,-8.5791,-8.5799,0,0,0,0,0,0,-8.4446,-8.448,-8.4824,-8.4836,-8.4581,-8.4724,-8.4746,-8.4833,-8.4935,-8.4943,-8.4837,-8.4825,-8.502,-8.5042,-8.5066,-8.5362,-8.5117,-8.5131,-8.514,-8.5782,-8.5792,-8.5802,0,0,0,0,0,0,-8.4436,-8.4478,-8.4816,-8.4657,-8.4698,-8.474,-8.4839,-8.4841,-8.49,-8.4954,-8.4959,-8.489,-8.5014,-8.5045,-8.5245,-8.5368,-8.5138,-8.5152,-8.5772,-8.5785,-8.5797,-8.5958,0,0,0,0,0,0,-8.4423,-8.4475,-8.4572,-8.466,-8.4707,-8.4995,-8.4847,-8.4851,-8.4927,-8.4913,-8.5005,-8.5013,-8.5011,-8.5223,-8.526,-8.5384,-8.5164,-8.5761,-8.5778,-8.5793,-8.5942,-8.5974,-8.6002,0,0,0,0,0,-8.4407,-8.4608,-8.4577,-8.4619,-8.4829,-8.5002,-8.5029,-8.5024,-8.4937,-8.5034,-8.5068,-8.501,-8.5348,-8.5244,-8.5285,-8.5416,-8.5753,-8.5773,-8.5792,-8.5928,-8.5968,-8.6002,0,0,0,0,0,0,-8.4531,-8.4619,-8.4586,-8.4822,-8.4906,-8.4985,-8.5106,-8.5067,-8.5175,-8.5158,-8.5145,-8.5167,-8.5374,-8.5415,-8.5297,-8.566,-8.5537,-8.5565,-8.5626,-8.5665,-8.5695,-8.568,-8.5176,0,0,0,0,0,-8.4586,-8.4722,-8.479,-8.4992,-8.5036,-8.5064,-8.5139,-8.5129,-8.5214,-8.5248,-8.5297,-8.538,-8.5504,-8.5587,-8.5704,-8.5947,-8.5964,-8.6056,-8.6087,-8.6111,-8.6136,-8.6265,-8.6306,-8.5865,-8.5865,-8.5864,0,0,-8.47,-8.4765,-8.4852,-8.5018,-8.5082,-8.522,-8.5095,-8.5247,-8.5348,-8.527,-8.5463,-8.5502,-8.5593,-8.5815,-8.5915,-8.5855,-8.6261,-8.6136,-8.6155,-8.6166,-8.6289,-8.6331,-8.6368,-8.5878,-8.5876,-8.5873,0,0,-8.498,-8.5044,-8.5218,-8.5285,-8.5384,-8.5401,-8.5443,-8.5529,-8.5552,-8.5746,-8.569,-8.5809,-8.6024,-8.6091,-8.6154,-8.6458,-8.6408,-8.6496,-8.6655,-8.6781,-8.6816,-8.6847,-8.6954,-8.6993,-8.652,-8.6521,-8.6521,0,-8.511,-8.5319,-8.5312,-8.5469,-8.5543,-8.5481,-8.5656,-8.572,-8.5851,-8.5902,-8.5834,-8.6102,-8.6159,-8.6395,-8.647,-8.6523,-8.6568,-8.6486,-8.6812,-8.6843,-8.6871,-8.6973,-8.7014,-8.6531,-8.653,-8.6529,-8.6528,0,-8.5472,-8.5618,-8.5746,-8.5877,-8.5965,-8.6131,-8.6146,-8.6236,-8.6217,-8.6241,-8.6438,-8.6504,-8.6633,-8.6688,-8.6671,-8.6922,-8.6882,-8.6813,-8.6689,-8.6924,-8.7019,-8.7058,-8.6545,-8.6542,-8.6539,-8.6536,0,0,-8.5836,-8.5961,-8.6009,-8.6067,-8.617,-8.6281,-8.6442,-8.6571,-8.6648,-8.674,-8.6873,-8.7056,-8.6994,-8.7064,-8.7053,-8.7164,-8.7399,-8.7082,-8.7083,-8.7138,-8.7678,-8.7729,-8.7774,-8.7367,-8.7374,-8.738,-8.767,0,-8.6122,-8.6408,-8.6406,-8.6668,-8.6801,-8.6743,-8.6883,-8.696,-8.6987,-8.7101,-8.7128,-8.7259,-8.7166,-8.7208,-8.7316,-8.7348,-8.7508,-8.7327,-8.7488,-8.7494,-8.7467,-8.7825,-8.7879,-8.815,-8.7707,-8.7714,-8.7718,0,-8.6495,-8.6602,-8.6878,-8.6961,-8.7017,-8.7143,-8.7261,-8.7372,-8.7457,-8.7468,-8.7547,-8.7519,-8.7679,-8.7551,-8.7771,-8.7648,-8.7713,-8.7739,-8.775,-8.7764,-8.762,-8.7848,-8.8236,-8.8276,-8.7777,-8.7773,-8.7768,0,-8.6732,-8.6944,-8.7137,-8.7188,-8.729,-8.738,-8.7426,-8.7504,-8.7582,-8.7683,-8.7732,-8.7851,-8.7915,-8.8006,-8.8009,-8.7916,-8.823,-8.8103,-8.8242,-8.8242,-8.8311,-8.8306,-8.8714,-8.8354,-8.8354,-8.8353,-8.8352,0,-8.7052,-8.7223,-8.7244,-8.7363,-8.7551,-8.7546,-8.7732,-8.777,-8.784,-8.7962,-8.7918,-8.8033,-8.8031,-8.8147,-8.815,-8.8331,-8.836,-8.8372,-8.8371,-8.8376,-8.8375,-8.8418,-8.8399,-8.8364,-8.8361,-8.8359,-8.8357,0,-8.7348,-8.737,-8.7576,-8.7656,-8.768,-8.7816,-8.7883,-8.7994,-8.8016,-8.8171,-8.8207,-8.8241,-8.8376,-8.8388,-8.8544,-8.8545,-8.8764,-8.8742,-8.8736,-8.8732,-8.8871,-8.8857,-8.932,-8.938,-8.8982,-8.8986,-8.8989,0,-8.7551,-8.7681,-8.7776,-8.7856,-8.7908,-8.8038,-8.8117,-8.8116,-8.8199,-8.8306,-8.8404,-8.8534,-8.8639,-8.8856,-8.8893,-8.9011,-8.8991,-8.9146,-8.9009,-8.901,-8.8993,-8.8985,-8.8997,-8.9172,-8.9176,-8.918,-8.9183,0,-8.7908,-8.7912,-8.8029,-8.8151,-8.8247,-8.8341,-8.8429,-8.8497,-8.8506,-8.8602,-8.874,-8.8822,-8.8981,-8.9111,-8.9227,-8.927,-8.9229,-8.9226,-8.9264,-8.9271,-8.9262,-8.9267,-8.8808,-8.9215,-8.9212,-8.9209,-8.9208,-8.9206,-8.8163,-8.8276,-8.8361,-8.8492,-8.8559,-8.8642,-8.8751,-8.8786,-8.8903,-8.9034,-8.9026,-8.9178,-8.9257,-8.9409,-8.9462,-8.9579,-8.9527,-8.9583,-8.9597,-8.9611,-8.9625,-8.9244,-8.96,-8.9599,-8.9599,-8.9598,-8.9597,0,-8.8517,-8.8569,-8.869,-8.8816,-8.8919,-8.8872,-8.8967,-8.9055,-8.9191,-8.927,-8.9374,-8.9532,-8.9657,-8.9704,-8.9825,-8.991,-8.9894,-8.9942,-8.9935,-8.9946,-8.9665,-8.962,-8.9953,-8.9953,-8.9953,-8.9953,-8.9953,-8.9953,-8.8714,-8.8902,-8.8916,-8.9136,-8.9185,-8.9336,-8.9394,-8.947,-8.9533,-8.9712,-8.9817,-8.9847,-8.9913,-9.0038,-9.015,-9.016,-9.0206,-9.0263,-9.0265,-9.0002,-8.9966,-8.9932,-8.9889,-9.0274,-9.0274,-9.0536,-9.0539,-9.054]}]]